Вернуться в каталог

CZ-6A R/B

АктивенLEO
NORAD 100177·ROCKET BODY·🇨🇳 China

Запущен Jul 30, 2026 с Taiyuan Satellite Launch Center

Loading…

Ближайшие Пролёты (ближайшие 24 часа)

TLE

СвежийSource: Space-Track

Эпоха: Sep 14, 2026, 23:48 UTC

1 A0177U 26173D   26257.99219416 -.00000141  00000-0 -79271-4 0  9995
2 A0177  64.7965 159.1423 0097366  96.9131 264.3001 13.56154409  6368

Отслеживайте CZ-6A R/B в реальном времени с AllMySat

Download on the App Store